Location: Foligno
(42.9600°N, 12.7050°E)
Time: 14:00:45
(UTC+02:00)

ISS - Pass Details

Date: 18 July 2018
Orbit: 402 x 408 km, 51.6° (Epoch: 21 July)

Event Time Altitude Azimuth Distance (km) Brightness Sun altitude
Rises 03:59:02 0° 305° (NW) 2,332 0.0 -15.7°
Reaches altitude 10° 04:01:18 10° 317° (NW) 1,471 -0.9 -15.5°
Maximum altitude 04:04:14 29° 20° (NNE) 778 -1.7 -15.1°
Drops below altitude 10° 04:07:11 10° 83° (E) 1,468 -0.3 -14.8°
Sets 04:09:26 0° 95° (E) 2,328 0.6 -14.5°
